Year,Month,Day,Hour,Minute,Value (Times are PST for temperature in C)
2010,05,04,00,00,5.40
2010,05,04,00,01,5.50
2010,05,04,00,02,5.50
2010,05,04,00,03,5.50
2010,05,04,00,04,5.50
2010,05,04,00,05,5.50
2010,05,04,00,06,5.50
2010,05,04,00,07,5.50
2010,05,04,00,08,5.60
2010,05,04,00,09,5.60
2010,05,04,00,10,5.60
2010,05,04,00,11,5.60
2010,05,04,00,12,5.60
2010,05,04,00,13,5.60
2010,05,04,00,14,5.60
2010,05,04,00,15,5.60
2010,05,04,00,16,5.50
2010,05,04,00,17,5.50
2010,05,04,00,18,5.50
2010,05,04,00,19,5.50
2010,05,04,00,20,5.50
2010,05,04,00,21,5.50
2010,05,04,00,22,5.40
2010,05,04,00,23,5.40
2010,05,04,00,24,5.40
2010,05,04,00,25,5.40
2010,05,04,00,26,5.30
2010,05,04,00,27,5.30
2010,05,04,00,28,5.30
2010,05,04,00,29,5.30
2010,05,04,00,30,5.30
2010,05,04,00,31,5.30
2010,05,04,00,32,5.30
2010,05,04,00,33,5.20
2010,05,04,00,34,5.20
2010,05,04,00,35,5.20
2010,05,04,00,36,5.10
2010,05,04,00,37,5.10
2010,05,04,00,38,5.10
2010,05,04,00,39,5.10
2010,05,04,00,40,5.10
2010,05,04,00,41,5.10
2010,05,04,00,42,4.90
2010,05,04,00,43,4.90
2010,05,04,00,44,4.90
2010,05,04,00,45,4.90
2010,05,04,00,46,4.90
2010,05,04,00,47,4.80
2010,05,04,00,48,4.80
2010,05,04,00,49,4.70
2010,05,04,00,50,4.70
2010,05,04,00,51,4.70
2010,05,04,00,52,4.60
2010,05,04,00,53,4.60
2010,05,04,00,54,4.50
2010,05,04,00,55,4.50
2010,05,04,00,56,4.50
2010,05,04,00,57,4.40
2010,05,04,00,58,4.40
2010,05,04,00,59,4.40
2010,05,04,01,00,4.30
2010,05,04,01,01,4.30
2010,05,04,01,02,4.30
2010,05,04,01,03,4.30
2010,05,04,01,04,4.30
2010,05,04,01,05,4.20
2010,05,04,01,06,4.20
2010,05,04,01,07,4.20
2010,05,04,01,08,4.20
2010,05,04,01,09,4.20
2010,05,04,01,10,4.20
2010,05,04,01,11,4.20
2010,05,04,01,12,4.10
2010,05,04,01,13,4.10
2010,05,04,01,14,4.10
2010,05,04,01,15,4.10
2010,05,04,01,16,4.10
2010,05,04,01,17,4.10
2010,05,04,01,18,4.10
2010,05,04,01,19,4.10
2010,05,04,01,20,4.10
2010,05,04,01,21,4.10
2010,05,04,01,22,4.10
2010,05,04,01,23,4.10
2010,05,04,01,24,4.10
2010,05,04,01,25,4.10
2010,05,04,01,26,4.10
2010,05,04,01,27,4.10
2010,05,04,01,28,4.10
2010,05,04,01,29,4.20
2010,05,04,01,30,4.20
2010,05,04,01,31,4.20
2010,05,04,01,32,4.20
2010,05,04,01,33,4.20
2010,05,04,01,34,4.30
2010,05,04,01,35,4.30
2010,05,04,01,36,4.30
2010,05,04,01,37,4.30
2010,05,04,01,38,4.30
2010,05,04,01,39,4.20
2010,05,04,01,40,4.20
2010,05,04,01,41,4.20
2010,05,04,01,42,4.20
2010,05,04,01,43,4.20
2010,05,04,01,44,4.20
2010,05,04,01,45,4.20
2010,05,04,01,46,4.20
2010,05,04,01,47,4.30
2010,05,04,01,48,4.30
2010,05,04,01,49,4.30
2010,05,04,01,50,4.30
2010,05,04,01,51,4.30
2010,05,04,01,52,4.30
2010,05,04,01,53,4.30
2010,05,04,01,54,4.30
2010,05,04,01,55,4.30
2010,05,04,01,56,4.30
2010,05,04,01,57,4.30
2010,05,04,01,58,4.30
2010,05,04,01,59,4.30
2010,05,04,02,00,4.30
2010,05,04,02,01,4.30
2010,05,04,02,02,4.20
2010,05,04,02,03,4.20
2010,05,04,02,04,4.20
2010,05,04,02,05,4.20
2010,05,04,02,06,4.20
2010,05,04,02,07,4.20
2010,05,04,02,08,4.20
2010,05,04,02,09,4.10
2010,05,04,02,10,4.10
2010,05,04,02,11,4.10
2010,05,04,02,12,4.10
2010,05,04,02,13,4.00
2010,05,04,02,14,4.00
2010,05,04,02,15,4.00
2010,05,04,02,16,4.00
2010,05,04,02,17,4.00
2010,05,04,02,18,4.00
2010,05,04,02,19,4.00
2010,05,04,02,20,4.00
2010,05,04,02,21,4.10
2010,05,04,02,22,4.10
2010,05,04,02,23,4.10
2010,05,04,02,24,4.10
2010,05,04,02,25,4.10
2010,05,04,02,26,4.10
2010,05,04,02,27,4.10
2010,05,04,02,28,4.20
2010,05,04,02,29,4.20
2010,05,04,02,30,4.20
2010,05,04,02,31,4.20
2010,05,04,02,32,4.20
2010,05,04,02,33,4.20
2010,05,04,02,34,4.20
2010,05,04,02,35,4.30
2010,05,04,02,36,4.30
2010,05,04,02,37,4.30
2010,05,04,02,38,4.30
2010,05,04,02,39,4.30
2010,05,04,02,40,4.30
2010,05,04,02,41,4.30
2010,05,04,02,42,4.40
2010,05,04,02,43,4.40
2010,05,04,02,44,4.40
2010,05,04,02,45,4.40
2010,05,04,02,46,4.50
2010,05,04,02,47,4.50
2010,05,04,02,48,4.50
2010,05,04,02,49,4.50
2010,05,04,02,50,4.50
2010,05,04,02,51,4.40
2010,05,04,02,52,4.40
2010,05,04,02,53,4.40
2010,05,04,02,54,4.40
2010,05,04,02,55,4.40
2010,05,04,02,56,4.40
2010,05,04,02,57,4.40
2010,05,04,02,58,4.40
2010,05,04,02,59,4.40
2010,05,04,03,00,4.40
2010,05,04,03,01,4.50
2010,05,04,03,02,4.50
2010,05,04,03,03,4.50
2010,05,04,03,04,4.50
2010,05,04,03,05,4.60
2010,05,04,03,06,4.60
2010,05,04,03,07,4.60
2010,05,04,03,08,4.60
2010,05,04,03,09,4.60
2010,05,04,03,10,4.70
2010,05,04,03,11,4.70
2010,05,04,03,12,4.70
2010,05,04,03,13,4.80
2010,05,04,03,14,4.80
2010,05,04,03,15,4.80
2010,05,04,03,16,4.90
2010,05,04,03,17,4.90
2010,05,04,03,18,4.90
2010,05,04,03,19,4.90
2010,05,04,03,20,4.90
2010,05,04,03,21,4.90
2010,05,04,03,22,4.90
2010,05,04,03,23,4.90
2010,05,04,03,24,4.90
2010,05,04,03,25,4.90
2010,05,04,03,26,4.90
2010,05,04,03,27,4.90
2010,05,04,03,28,4.90
2010,05,04,03,29,5.00
2010,05,04,03,30,5.10
2010,05,04,03,31,5.00
2010,05,04,03,32,5.00
2010,05,04,03,33,5.10
2010,05,04,03,34,4.90
2010,05,04,03,35,4.90
2010,05,04,03,36,4.90
2010,05,04,03,37,4.90
2010,05,04,03,38,4.90
2010,05,04,03,39,4.90
2010,05,04,03,40,4.90
2010,05,04,03,41,4.80
2010,05,04,03,42,4.80
2010,05,04,03,43,4.80
2010,05,04,03,44,4.70
2010,05,04,03,45,4.70
2010,05,04,03,46,4.70
2010,05,04,03,47,4.60
2010,05,04,03,48,4.60
2010,05,04,03,49,4.60
2010,05,04,03,50,4.60
2010,05,04,03,51,4.50
2010,05,04,03,52,4.50
2010,05,04,03,53,4.50
2010,05,04,03,54,4.50
2010,05,04,03,55,4.50
2010,05,04,03,56,4.50
2010,05,04,03,57,4.50
2010,05,04,03,58,4.40
2010,05,04,03,59,4.40
2010,05,04,04,00,4.40
2010,05,04,04,01,4.40
2010,05,04,04,02,4.40
2010,05,04,04,03,4.40
2010,05,04,04,04,4.40
2010,05,04,04,05,4.40
2010,05,04,04,06,4.40
2010,05,04,04,07,4.30
2010,05,04,04,08,4.30
2010,05,04,04,09,4.30
2010,05,04,04,10,4.30
2010,05,04,04,11,4.30
2010,05,04,04,12,4.20
2010,05,04,04,13,4.20
2010,05,04,04,14,4.20
2010,05,04,04,15,4.20
2010,05,04,04,16,4.20
2010,05,04,04,17,4.20
2010,05,04,04,18,4.20
2010,05,04,04,19,4.20
2010,05,04,04,20,4.20
2010,05,04,04,21,4.20
2010,05,04,04,22,4.20
2010,05,04,04,23,4.20
2010,05,04,04,24,4.20
2010,05,04,04,25,4.20
2010,05,04,04,26,4.20
2010,05,04,04,27,4.20
2010,05,04,04,28,4.20
2010,05,04,04,29,4.20
2010,05,04,04,30,4.20
2010,05,04,04,31,4.20
2010,05,04,04,32,4.20
2010,05,04,04,33,4.10
2010,05,04,04,34,4.10
2010,05,04,04,35,4.10
2010,05,04,04,36,4.10
2010,05,04,04,37,4.10
2010,05,04,04,38,4.10
2010,05,04,04,39,4.10
2010,05,04,04,40,4.10
2010,05,04,04,41,4.10
2010,05,04,04,42,4.10
2010,05,04,04,43,4.00
2010,05,04,04,44,4.00
2010,05,04,04,45,4.00
2010,05,04,04,46,4.00
2010,05,04,04,47,3.90
2010,05,04,04,48,3.90
2010,05,04,04,49,3.90
2010,05,04,04,50,3.90
2010,05,04,04,51,3.80
2010,05,04,04,52,3.90
2010,05,04,04,53,3.90
2010,05,04,04,54,3.90
2010,05,04,04,55,3.90
2010,05,04,04,56,3.90
2010,05,04,04,57,3.90
2010,05,04,04,58,3.80
2010,05,04,04,59,3.80
2010,05,04,05,00,3.80
2010,05,04,05,01,3.70
2010,05,04,05,02,3.70
2010,05,04,05,03,3.60
2010,05,04,05,04,3.60
2010,05,04,05,05,3.60
2010,05,04,05,06,3.50
2010,05,04,05,07,3.50
2010,05,04,05,08,3.50
2010,05,04,05,09,3.50
2010,05,04,05,10,3.40
2010,05,04,05,11,3.40
2010,05,04,05,12,3.40
2010,05,04,05,13,3.40
2010,05,04,05,14,3.50
2010,05,04,05,15,3.50
2010,05,04,05,16,3.50
2010,05,04,05,17,3.50
2010,05,04,05,18,3.50
2010,05,04,05,19,3.50
2010,05,04,05,20,3.50
2010,05,04,05,21,3.50
2010,05,04,05,22,3.50
2010,05,04,05,23,3.60
2010,05,04,05,24,3.60
2010,05,04,05,25,3.60
2010,05,04,05,26,3.60
2010,05,04,05,27,3.60
2010,05,04,05,28,3.70
2010,05,04,05,29,3.70
2010,05,04,05,30,3.70
2010,05,04,05,31,3.70
2010,05,04,05,32,3.70
2010,05,04,05,33,3.70
2010,05,04,05,34,3.70
2010,05,04,05,35,3.70
2010,05,04,05,36,3.70
2010,05,04,05,37,3.70
2010,05,04,05,38,3.70
2010,05,04,05,39,3.70
2010,05,04,05,40,3.80
2010,05,04,05,41,3.80
2010,05,04,05,42,3.70
2010,05,04,05,43,3.70
2010,05,04,05,44,3.80
2010,05,04,05,45,3.80
2010,05,04,05,46,3.80
2010,05,04,05,47,3.80
2010,05,04,05,48,3.80
2010,05,04,05,49,3.80
2010,05,04,05,50,3.70
2010,05,04,05,51,3.70
2010,05,04,05,52,3.60
2010,05,04,05,53,3.60
2010,05,04,05,54,3.60
2010,05,04,05,55,3.50
2010,05,04,05,56,3.50
2010,05,04,05,57,3.50
2010,05,04,05,58,3.40
2010,05,04,05,59,3.40
2010,05,04,06,00,3.40
2010,05,04,06,01,3.30
2010,05,04,06,02,3.30
2010,05,04,06,03,3.30
2010,05,04,06,04,3.30
2010,05,04,06,05,3.30
2010,05,04,06,06,3.30
2010,05,04,06,07,3.30
2010,05,04,06,08,3.30
2010,05,04,06,09,3.30
2010,05,04,06,10,3.30
2010,05,04,06,11,3.40
2010,05,04,06,12,3.40
2010,05,04,06,13,3.40
2010,05,04,06,14,3.40
2010,05,04,06,15,3.40
2010,05,04,06,16,3.50
2010,05,04,06,17,3.50
2010,05,04,06,18,3.50
2010,05,04,06,19,3.50
2010,05,04,06,20,3.50
2010,05,04,06,21,3.60
2010,05,04,06,22,3.70
2010,05,04,06,23,3.70
2010,05,04,06,24,3.70
2010,05,04,06,25,3.70
2010,05,04,06,26,3.70
2010,05,04,06,27,3.80
2010,05,04,06,28,3.80
2010,05,04,06,29,3.80
2010,05,04,06,30,3.80
2010,05,04,06,31,3.80
2010,05,04,06,32,3.80
2010,05,04,06,33,3.80
2010,05,04,06,34,3.90
2010,05,04,06,35,3.90
2010,05,04,06,36,4.00
2010,05,04,06,37,4.00
2010,05,04,06,38,4.00
2010,05,04,06,39,4.00
2010,05,04,06,40,4.10
2010,05,04,06,41,4.10
2010,05,04,06,42,4.10
2010,05,04,06,43,4.10
2010,05,04,06,44,4.10
2010,05,04,06,45,4.10
2010,05,04,06,46,4.10
2010,05,04,06,47,4.10
2010,05,04,06,48,4.20
2010,05,04,06,49,4.20
2010,05,04,06,50,4.20
2010,05,04,06,51,4.30
2010,05,04,06,52,4.30
2010,05,04,06,53,4.40
2010,05,04,06,54,4.50
2010,05,04,06,55,4.50
2010,05,04,06,56,4.50
2010,05,04,06,57,4.60
2010,05,04,06,58,4.60
2010,05,04,06,59,4.70
2010,05,04,07,00,4.70
2010,05,04,07,01,4.80
2010,05,04,07,02,4.90
2010,05,04,07,03,4.90
2010,05,04,07,04,4.90
2010,05,04,07,05,4.90
2010,05,04,07,06,5.00
2010,05,04,07,07,5.10
2010,05,04,07,08,5.10
2010,05,04,07,09,5.10
2010,05,04,07,10,5.20
2010,05,04,07,11,5.30
2010,05,04,07,12,5.30
2010,05,04,07,13,5.40
2010,05,04,07,14,5.50
2010,05,04,07,15,5.60
2010,05,04,07,16,5.70
2010,05,04,07,17,5.70
2010,05,04,07,18,5.70
2010,05,04,07,19,5.70
2010,05,04,07,20,5.80
2010,05,04,07,21,5.90
2010,05,04,07,22,5.90
2010,05,04,07,23,5.90
2010,05,04,07,24,5.90
2010,05,04,07,25,6.00
2010,05,04,07,26,6.00
2010,05,04,07,27,6.00
2010,05,04,07,28,6.00
2010,05,04,07,29,6.00
2010,05,04,07,30,6.00
2010,05,04,07,31,6.10
2010,05,04,07,32,6.10
2010,05,04,07,33,6.10
2010,05,04,07,34,6.20
2010,05,04,07,35,6.20
2010,05,04,07,36,6.20
2010,05,04,07,37,6.20
2010,05,04,07,38,6.20
2010,05,04,07,39,6.20
2010,05,04,07,40,6.20
2010,05,04,07,41,6.30
2010,05,04,07,42,6.30
2010,05,04,07,43,6.40
2010,05,04,07,44,6.40
2010,05,04,07,45,6.40
2010,05,04,07,46,6.40
2010,05,04,07,47,6.40
2010,05,04,07,48,6.40
2010,05,04,07,49,6.40
2010,05,04,07,50,6.50
2010,05,04,07,51,6.60
2010,05,04,07,52,6.60
2010,05,04,07,53,6.70
2010,05,04,07,54,6.70
2010,05,04,07,55,6.70
2010,05,04,07,56,6.70
2010,05,04,07,57,6.80
2010,05,04,07,58,6.80
2010,05,04,07,59,6.80
2010,05,04,08,00,6.80
2010,05,04,08,01,6.80
2010,05,04,08,02,6.80
2010,05,04,08,03,6.80
2010,05,04,08,04,6.80
2010,05,04,08,05,6.90
2010,05,04,08,06,6.90
2010,05,04,08,07,7.00
2010,05,04,08,08,7.00
2010,05,04,08,09,7.10
2010,05,04,08,10,7.10
2010,05,04,08,11,7.10
2010,05,04,08,12,7.10
2010,05,04,08,13,7.10
2010,05,04,08,14,7.10
2010,05,04,08,15,7.10
2010,05,04,08,16,7.20
2010,05,04,08,17,7.20
2010,05,04,08,18,7.30
2010,05,04,08,19,7.30
2010,05,04,08,20,7.30
2010,05,04,08,21,7.40
2010,05,04,08,22,7.40
2010,05,04,08,23,7.40
2010,05,04,08,24,7.50
2010,05,04,08,25,7.50
2010,05,04,08,26,7.60
2010,05,04,08,27,7.60
2010,05,04,08,28,7.60
2010,05,04,08,29,7.70
2010,05,04,08,30,7.70
2010,05,04,08,31,7.70
2010,05,04,08,32,7.70
2010,05,04,08,33,7.70
2010,05,04,08,34,7.60
2010,05,04,08,35,7.60
2010,05,04,08,36,7.60
2010,05,04,08,37,7.60
2010,05,04,08,38,7.60
2010,05,04,08,39,7.70
2010,05,04,08,40,7.70
2010,05,04,08,41,7.70
2010,05,04,08,42,7.70
2010,05,04,08,43,7.60
2010,05,04,08,44,7.60
2010,05,04,08,45,7.60
2010,05,04,08,46,7.60
2010,05,04,08,47,7.70
2010,05,04,08,48,7.70
2010,05,04,08,49,7.80
2010,05,04,08,50,7.80
2010,05,04,08,51,7.80
2010,05,04,08,52,7.80
2010,05,04,08,53,7.90
2010,05,04,08,54,8.00
2010,05,04,08,55,8.00
2010,05,04,08,56,8.10
2010,05,04,08,57,8.10
2010,05,04,08,58,8.10
2010,05,04,08,59,8.20
2010,05,04,09,00,8.20
2010,05,04,09,01,8.20
2010,05,04,09,02,8.20
2010,05,04,09,03,8.20
2010,05,04,09,04,8.20
2010,05,04,09,05,8.20
2010,05,04,09,06,8.20
2010,05,04,09,07,8.10
2010,05,04,09,08,8.20
2010,05,04,09,09,8.20
2010,05,04,09,10,8.20
2010,05,04,09,11,8.20
2010,05,04,09,12,8.10
2010,05,04,09,13,8.10
2010,05,04,09,14,8.10
2010,05,04,09,15,8.10
2010,05,04,09,16,8.20
2010,05,04,09,17,8.30
2010,05,04,09,18,8.40
2010,05,04,09,19,8.40
2010,05,04,09,20,8.50
2010,05,04,09,21,8.50
2010,05,04,09,22,8.60
2010,05,04,09,23,8.50
2010,05,04,09,24,8.40
2010,05,04,09,25,8.30
2010,05,04,09,26,8.20
2010,05,04,09,27,8.30
2010,05,04,09,28,8.40
2010,05,04,09,29,8.40
2010,05,04,09,30,8.50
2010,05,04,09,31,8.50
2010,05,04,09,32,8.60
2010,05,04,09,33,8.60
2010,05,04,09,34,8.60
2010,05,04,09,35,8.60
2010,05,04,09,36,8.70
2010,05,04,09,37,8.70
2010,05,04,09,38,8.70
2010,05,04,09,39,8.70
2010,05,04,09,40,8.80
2010,05,04,09,41,8.90
2010,05,04,09,42,9.10
2010,05,04,09,43,9.00
2010,05,04,09,44,9.00
2010,05,04,09,45,9.00
2010,05,04,09,46,9.00
2010,05,04,09,47,9.00
2010,05,04,09,48,9.00
2010,05,04,09,49,9.00
2010,05,04,09,50,8.90
2010,05,04,09,51,8.80
2010,05,04,09,52,8.70
2010,05,04,09,53,8.70
2010,05,04,09,54,8.70
2010,05,04,09,55,8.70
2010,05,04,09,56,8.70
2010,05,04,09,57,8.70
2010,05,04,09,58,8.70
2010,05,04,09,59,8.80
2010,05,04,10,00,8.90
2010,05,04,10,01,9.00
2010,05,04,10,02,9.10
2010,05,04,10,03,9.10
2010,05,04,10,04,9.10
2010,05,04,10,05,9.20
2010,05,04,10,06,9.20
2010,05,04,10,07,9.30
2010,05,04,10,08,9.30
2010,05,04,10,09,9.30
2010,05,04,10,10,9.20
2010,05,04,10,11,9.30
2010,05,04,10,12,9.30
2010,05,04,10,13,9.40
2010,05,04,10,14,9.50
2010,05,04,10,15,9.40
2010,05,04,10,16,9.30
2010,05,04,10,17,9.30
2010,05,04,10,18,9.20
2010,05,04,10,19,9.30
2010,05,04,10,20,9.20
2010,05,04,10,21,9.30
2010,05,04,10,22,9.20
2010,05,04,10,23,9.20
2010,05,04,10,24,9.20
2010,05,04,10,25,9.20
2010,05,04,10,26,9.30
2010,05,04,10,27,9.40
2010,05,04,10,28,9.40
2010,05,04,10,29,9.50
2010,05,04,10,30,9.50
2010,05,04,10,31,9.60
2010,05,04,10,32,9.70
2010,05,04,10,33,9.70
2010,05,04,10,34,9.80
2010,05,04,10,35,9.80
2010,05,04,10,36,9.90
2010,05,04,10,37,9.90
2010,05,04,10,38,9.80
2010,05,04,10,39,9.80
2010,05,04,10,40,9.70
2010,05,04,10,41,9.70
2010,05,04,10,42,9.70
2010,05,04,10,43,9.80
2010,05,04,10,44,9.90
2010,05,04,10,45,10.10
2010,05,04,10,46,10.20
2010,05,04,10,47,10.20
2010,05,04,10,48,10.30
2010,05,04,10,49,10.40
2010,05,04,10,50,10.50
2010,05,04,10,51,10.40
2010,05,04,10,52,10.30
2010,05,04,10,53,10.20
2010,05,04,10,54,10.10
2010,05,04,10,55,10.10
2010,05,04,10,56,9.90
2010,05,04,10,57,9.80
2010,05,04,10,58,9.70
2010,05,04,10,59,9.70
2010,05,04,11,00,9.60
2010,05,04,11,01,9.60
2010,05,04,11,02,9.60
2010,05,04,11,03,9.60
2010,05,04,11,04,9.70
2010,05,04,11,05,9.70
2010,05,04,11,06,9.60
2010,05,04,11,07,9.70
2010,05,04,11,08,9.70
2010,05,04,11,09,9.70
2010,05,04,11,10,9.70
2010,05,04,11,11,9.80
2010,05,04,11,12,9.90
2010,05,04,11,13,9.90
2010,05,04,11,14,10.10
2010,05,04,11,15,10.10
2010,05,04,11,16,10.10
2010,05,04,11,17,10.00
2010,05,04,11,18,9.90
2010,05,04,11,19,9.90
2010,05,04,11,20,9.80
2010,05,04,11,21,9.80
2010,05,04,11,22,9.90
2010,05,04,11,23,9.90
2010,05,04,11,24,10.00
2010,05,04,11,25,10.10
2010,05,04,11,26,10.10
2010,05,04,11,27,10.10
2010,05,04,11,28,10.20
2010,05,04,11,29,10.10
2010,05,04,11,30,10.10
2010,05,04,11,31,9.90
2010,05,04,11,32,9.90
2010,05,04,11,33,9.90
2010,05,04,11,34,10.00
2010,05,04,11,35,10.20
2010,05,04,11,36,10.20
2010,05,04,11,37,10.40
2010,05,04,11,38,10.50
2010,05,04,11,39,10.60
2010,05,04,11,40,10.60
2010,05,04,11,41,10.60
2010,05,04,11,42,10.60
2010,05,04,11,43,10.60
2010,05,04,11,44,10.50
2010,05,04,11,45,10.40
2010,05,04,11,46,10.30
2010,05,04,11,47,10.30
2010,05,04,11,48,10.20
2010,05,04,11,49,10.30
2010,05,04,11,50,10.30
2010,05,04,11,51,10.40
2010,05,04,11,52,10.40
2010,05,04,11,53,10.40
2010,05,04,11,54,10.50
2010,05,04,11,55,10.60
2010,05,04,11,56,10.60
2010,05,04,11,57,10.60
2010,05,04,11,58,10.60
2010,05,04,11,59,10.40
2010,05,04,12,00,10.40
2010,05,04,12,01,10.40
2010,05,04,12,02,10.60
2010,05,04,12,03,10.60
2010,05,04,12,04,10.80
2010,05,04,12,05,10.90
2010,05,04,12,06,11.00
2010,05,04,12,07,11.20
2010,05,04,12,08,11.20
2010,05,04,12,09,11.30
2010,05,04,12,10,11.40
2010,05,04,12,11,11.40
2010,05,04,12,12,11.60
2010,05,04,12,13,11.60
2010,05,04,12,14,11.40
2010,05,04,12,15,11.40
2010,05,04,12,16,11.40
2010,05,04,12,17,11.40
2010,05,04,12,18,11.50
2010,05,04,12,19,11.60
2010,05,04,12,20,11.60
2010,05,04,12,21,11.50
2010,05,04,12,22,11.60
2010,05,04,12,23,11.50
2010,05,04,12,24,11.30
2010,05,04,12,25,11.10
2010,05,04,12,26,10.80
2010,05,04,12,27,10.60
2010,05,04,12,28,10.40
2010,05,04,12,29,10.20
2010,05,04,12,30,10.10
2010,05,04,12,31,9.90
2010,05,04,12,32,9.60
2010,05,04,12,33,9.30
2010,05,04,12,34,9.10
2010,05,04,12,35,8.90
2010,05,04,12,36,8.80
2010,05,04,12,37,8.60
2010,05,04,12,38,8.50
2010,05,04,12,39,8.30
2010,05,04,12,40,8.20
2010,05,04,12,41,8.10
2010,05,04,12,42,8.00
2010,05,04,12,43,7.90
2010,05,04,12,44,7.90
2010,05,04,12,45,7.90
2010,05,04,12,46,7.80
2010,05,04,12,47,7.80
2010,05,04,12,48,7.80
2010,05,04,12,49,7.80
2010,05,04,12,50,7.80
2010,05,04,12,51,7.80
2010,05,04,12,52,7.80
2010,05,04,12,53,7.80
2010,05,04,12,54,7.80
2010,05,04,12,55,7.80
2010,05,04,12,56,7.90
2010,05,04,12,57,7.90
2010,05,04,12,58,7.90
2010,05,04,12,59,7.90
2010,05,04,13,00,8.00
2010,05,04,13,01,8.00
2010,05,04,13,02,8.00
2010,05,04,13,03,8.00
2010,05,04,13,04,8.00
2010,05,04,13,05,8.00
2010,05,04,13,06,8.00
2010,05,04,13,07,8.00
2010,05,04,13,08,8.00
2010,05,04,13,09,8.00
2010,05,04,13,10,8.00
2010,05,04,13,11,8.00
2010,05,04,13,12,8.00
2010,05,04,13,13,8.00
2010,05,04,13,14,8.00
2010,05,04,13,15,8.00
2010,05,04,13,16,7.90
2010,05,04,13,17,7.90
2010,05,04,13,18,7.80
2010,05,04,13,19,7.70
2010,05,04,13,20,7.60
2010,05,04,13,21,7.60
2010,05,04,13,22,7.50
2010,05,04,13,23,7.50
2010,05,04,13,24,7.50
2010,05,04,13,25,7.50
2010,05,04,13,26,7.50
2010,05,04,13,27,7.60
2010,05,04,13,28,7.50
2010,05,04,13,29,7.50
2010,05,04,13,30,7.50
2010,05,04,13,31,7.50
2010,05,04,13,32,7.60
2010,05,04,13,33,7.60
2010,05,04,13,34,7.60
2010,05,04,13,35,7.70
2010,05,04,13,36,7.70
2010,05,04,13,37,7.60
2010,05,04,13,38,7.60
2010,05,04,13,39,7.60
2010,05,04,13,40,7.60
2010,05,04,13,41,7.70
2010,05,04,13,42,7.80
2010,05,04,13,43,7.80
2010,05,04,13,44,7.70
2010,05,04,13,45,7.70
2010,05,04,13,46,7.70
2010,05,04,13,47,7.70
2010,05,04,13,48,7.80
2010,05,04,13,49,7.80
2010,05,04,13,50,7.80
2010,05,04,13,51,7.90
2010,05,04,13,52,8.00
2010,05,04,13,53,8.10
2010,05,04,13,54,8.10
2010,05,04,13,55,8.10
2010,05,04,13,56,8.20
2010,05,04,13,57,8.20
2010,05,04,13,58,8.20
2010,05,04,13,59,8.30
2010,05,04,14,00,8.40
2010,05,04,14,01,8.40
2010,05,04,14,02,8.50
2010,05,04,14,03,8.60
2010,05,04,14,04,8.70
2010,05,04,14,05,8.70
2010,05,04,14,06,8.70
2010,05,04,14,07,8.70
2010,05,04,14,08,8.70
2010,05,04,14,09,8.70
2010,05,04,14,10,8.60
2010,05,04,14,11,8.50
2010,05,04,14,12,8.50
2010,05,04,14,13,8.50
2010,05,04,14,14,8.50
2010,05,04,14,15,8.40
2010,05,04,14,16,8.40
2010,05,04,14,17,8.40
2010,05,04,14,18,8.30
2010,05,04,14,19,8.30
2010,05,04,14,20,8.30
2010,05,04,14,21,8.20
2010,05,04,14,22,8.20
2010,05,04,14,23,8.20
2010,05,04,14,24,8.20
2010,05,04,14,25,8.20
2010,05,04,14,26,8.20
2010,05,04,14,27,8.20
2010,05,04,14,28,8.20
2010,05,04,14,29,8.20
2010,05,04,14,30,8.30
2010,05,04,14,31,8.40
2010,05,04,14,32,8.50
2010,05,04,14,33,8.50
2010,05,04,14,34,8.70
2010,05,04,14,35,8.70
2010,05,04,14,36,8.80
2010,05,04,14,37,8.80
2010,05,04,14,38,8.80
2010,05,04,14,39,8.80
2010,05,04,14,40,8.90
2010,05,04,14,41,8.90
2010,05,04,14,42,8.90
2010,05,04,14,43,8.80
2010,05,04,14,44,8.80
2010,05,04,14,45,8.80
2010,05,04,14,46,8.90
2010,05,04,14,47,8.90
2010,05,04,14,48,8.90
2010,05,04,14,49,8.90
2010,05,04,14,50,8.80
2010,05,04,14,51,8.80
2010,05,04,14,52,8.70
2010,05,04,14,53,8.70
2010,05,04,14,54,8.70
2010,05,04,14,55,8.70
2010,05,04,14,56,8.70
2010,05,04,14,57,8.70
2010,05,04,14,58,8.80
2010,05,04,14,59,8.80
2010,05,04,15,00,8.90
2010,05,04,15,01,8.90
2010,05,04,15,02,8.90
2010,05,04,15,03,8.90
2010,05,04,15,04,8.90
2010,05,04,15,05,8.80
2010,05,04,15,06,8.80
2010,05,04,15,07,8.70
2010,05,04,15,08,8.70
2010,05,04,15,09,8.70
2010,05,04,15,10,8.70
2010,05,04,15,11,8.70
2010,05,04,15,12,8.70
2010,05,04,15,13,8.70
2010,05,04,15,14,8.60
2010,05,04,15,15,8.60
2010,05,04,15,16,8.60
2010,05,04,15,17,8.60
2010,05,04,15,18,8.60
2010,05,04,15,19,8.60
2010,05,04,15,20,8.60
2010,05,04,15,21,8.60
2010,05,04,15,22,8.60
2010,05,04,15,23,8.70
2010,05,04,15,24,8.70
2010,05,04,15,25,8.70
2010,05,04,15,26,8.70
2010,05,04,15,27,8.80
2010,05,04,15,28,8.80
2010,05,04,15,29,8.80
2010,05,04,15,30,8.80
2010,05,04,15,31,8.90
2010,05,04,15,32,8.90
2010,05,04,15,33,8.90
2010,05,04,15,34,8.90
2010,05,04,15,35,8.90
2010,05,04,15,36,8.90
2010,05,04,15,37,8.90
2010,05,04,15,38,8.90
2010,05,04,15,39,8.90
2010,05,04,15,40,8.90
2010,05,04,15,41,8.90
2010,05,04,15,42,8.90
2010,05,04,15,43,8.90
2010,05,04,15,44,8.90
2010,05,04,15,45,8.90
2010,05,04,15,46,8.90
2010,05,04,15,47,8.90
2010,05,04,15,48,8.90
2010,05,04,15,49,8.90
2010,05,04,15,50,8.90
2010,05,04,15,51,8.80
2010,05,04,15,52,8.80
2010,05,04,15,53,8.80
2010,05,04,15,54,8.70
2010,05,04,15,55,8.70
2010,05,04,15,56,8.60
2010,05,04,15,57,8.50
2010,05,04,15,58,8.50
2010,05,04,15,59,8.50
2010,05,04,16,00,8.40
2010,05,04,16,01,8.40
2010,05,04,16,02,8.50
2010,05,04,16,03,8.50
2010,05,04,16,04,8.50
2010,05,04,16,05,8.50
2010,05,04,16,06,8.50
2010,05,04,16,07,8.40
2010,05,04,16,08,8.40
2010,05,04,16,09,8.40
2010,05,04,16,10,8.40
2010,05,04,16,11,8.40
2010,05,04,16,12,8.40
2010,05,04,16,13,8.40
2010,05,04,16,14,8.30
2010,05,04,16,15,8.30
2010,05,04,16,16,8.30
2010,05,04,16,17,8.20
2010,05,04,16,18,8.20
2010,05,04,16,19,8.10
2010,05,04,16,20,8.10
2010,05,04,16,21,8.10
2010,05,04,16,22,8.00
2010,05,04,16,23,8.00
2010,05,04,16,24,8.00
2010,05,04,16,25,8.00
2010,05,04,16,26,8.00
2010,05,04,16,27,8.00
2010,05,04,16,28,8.00
2010,05,04,16,29,8.00
2010,05,04,16,30,8.00
2010,05,04,16,31,7.90
2010,05,04,16,32,7.90
2010,05,04,16,33,7.90
2010,05,04,16,34,7.90
2010,05,04,16,35,7.90
2010,05,04,16,36,7.90
2010,05,04,16,37,7.90
2010,05,04,16,38,7.90
2010,05,04,16,39,8.00
2010,05,04,16,40,8.00
2010,05,04,16,41,8.00
2010,05,04,16,42,8.00
2010,05,04,16,43,8.10
2010,05,04,16,44,8.00
2010,05,04,16,45,8.00
2010,05,04,16,46,8.10
2010,05,04,16,47,8.00
2010,05,04,16,48,8.00
2010,05,04,16,49,8.00
2010,05,04,16,50,7.90
2010,05,04,16,51,8.00
2010,05,04,16,52,8.00
2010,05,04,16,53,8.10
2010,05,04,16,54,8.20
2010,05,04,16,55,8.40
2010,05,04,16,56,8.50
2010,05,04,16,57,8.70
2010,05,04,16,58,8.70
2010,05,04,16,59,8.80
2010,05,04,17,00,8.80
2010,05,04,17,01,8.90
2010,05,04,17,02,8.90
2010,05,04,17,03,8.90
2010,05,04,17,04,9.00
2010,05,04,17,05,9.00
2010,05,04,17,06,9.00
2010,05,04,17,07,9.10
2010,05,04,17,08,9.10
2010,05,04,17,09,9.10
2010,05,04,17,10,9.20
2010,05,04,17,11,9.20
2010,05,04,17,12,9.20
2010,05,04,17,13,9.20
2010,05,04,17,14,9.20
2010,05,04,17,15,9.20
2010,05,04,17,16,9.30
2010,05,04,17,17,9.30
2010,05,04,17,18,9.40
2010,05,04,17,19,9.40
2010,05,04,17,20,9.50
2010,05,04,17,21,9.60
2010,05,04,17,22,9.70
2010,05,04,17,23,9.70
2010,05,04,17,24,9.70
2010,05,04,17,25,9.70
2010,05,04,17,26,9.80
2010,05,04,17,27,9.80
2010,05,04,17,28,9.80
2010,05,04,17,29,9.80
2010,05,04,17,30,9.70
2010,05,04,17,31,9.70
2010,05,04,17,32,9.70
2010,05,04,17,33,9.70
2010,05,04,17,34,9.70
2010,05,04,17,35,9.70
2010,05,04,17,36,9.70
2010,05,04,17,37,9.70
2010,05,04,17,38,9.60
2010,05,04,17,39,9.50
2010,05,04,17,40,9.40
2010,05,04,17,41,9.40
2010,05,04,17,42,9.40
2010,05,04,17,43,9.30
2010,05,04,17,44,9.40
2010,05,04,17,45,9.40
2010,05,04,17,46,9.40
2010,05,04,17,47,9.50
2010,05,04,17,48,9.50
2010,05,04,17,49,9.60
2010,05,04,17,50,9.60
2010,05,04,17,51,9.50
2010,05,04,17,52,9.40
2010,05,04,17,53,9.50
2010,05,04,17,54,9.50
2010,05,04,17,55,9.50
2010,05,04,17,56,9.50
2010,05,04,17,57,9.50
2010,05,04,17,58,9.50
2010,05,04,17,59,9.60
2010,05,04,18,00,9.60
2010,05,04,18,01,9.60
2010,05,04,18,02,9.70
2010,05,04,18,03,9.70